,,,PA_Meas_PMT16A,,PR_Meas_QMR101_102,,RH_Meas_QMH101,,SR_Meas_QMS101,,TA_Meas_QMH101,,GenWind,,GenWind,
date,time,status,PA,status,PR,status,RH,status,SR,status,TA,status,DirAvg,status,SpdAvg,
2010-03-24, 00:00:04,VALID,1001.89,VALID,0,VALID,86.3666,VALID,0,VALID,26.0596,VALID,280,VALID,0.541797,
2010-03-24, 00:01:04,VALID,1001.93,VALID,0,VALID,86.3132,VALID,0,VALID,26.0596,VALID,292,VALID,0.992188,
2010-03-24, 00:02:04,VALID,1001.92,VALID,0,VALID,86.2979,VALID,0,VALID,26.1005,VALID,296,VALID,0.555469,
2010-03-24, 00:03:04,VALID,1001.89,VALID,0,VALID,86.3208,VALID,0,VALID,26.0791,VALID,293,VALID,0.307031,
2010-03-24, 00:04:04,VALID,1001.95,VALID,0,VALID,86.3894,VALID,0,VALID,26.0791,VALID,280,VALID,0.676953,
2010-03-24, 00:05:04,VALID,1001.96,VALID,0,VALID,86.4276,VALID,0,VALID,26.0596,VALID,275,VALID,0.756641,
2010-03-24, 00:06:04,VALID,1001.99,VALID,0,VALID,86.5115,VALID,0,VALID,26.0401,VALID,284,VALID,0.453906,
2010-03-24, 00:07:04,VALID,1002.01,VALID,0,VALID,86.4962,VALID,0,VALID,26.0616,VALID,289,VALID,0.433594,
2010-03-24, 00:08:04,VALID,1002.04,VALID,0,VALID,86.4276,VALID,0,VALID,26.0401,VALID,291,VALID,0.279297,
2010-03-24, 00:09:04,VALID,1002.04,VALID,0,VALID,86.5649,VALID,0,VALID,26.0401,VALID,307,VALID,0.204688,
2010-03-24, 00:10:04,VALID,1002.02,VALID,0,VALID,86.6793,VALID,0,VALID,26.0401,VALID,307,VALID,0.05625,
2010-03-24, 00:11:04,VALID,1002.01,VALID,0,VALID,86.7861,VALID,0,VALID,25.9602,VALID,307,VALID,0,
2010-03-24, 00:12:04,VALID,1001.99,VALID,0,VALID,86.9616,VALID,0,VALID,25.9622,VALID,281,VALID,0.507813,
2010-03-24, 00:13:04,VALID,1001.97,VALID,0,VALID,87.1447,VALID,0,VALID,25.9038,VALID,270,VALID,0.0625,
2010-03-24, 00:14:04,VALID,1001.96,VALID,0,VALID,87.3202,VALID,0,VALID,25.8629,VALID,286,VALID,0.772656,
2010-03-24, 00:15:04,VALID,1001.93,VALID,0,VALID,87.4193,VALID,0,VALID,25.8648,VALID,291,VALID,0.625781,
2010-03-24, 00:16:04,VALID,1001.93,VALID,0,VALID,87.4346,VALID,0,VALID,25.8648,VALID,286,VALID,0.279687,
2010-03-24, 00:17:04,VALID,1001.88,VALID,0,VALID,87.5185,VALID,0,VALID,25.8453,VALID,282,VALID,0.563672,
2010-03-24, 00:18:04,VALID,1001.88,VALID,0,VALID,87.6024,VALID,0,VALID,25.8259,VALID,343,VALID,0.811719,
2010-03-24, 00:19:04,VALID,1001.85,VALID,0,VALID,87.7169,VALID,0,VALID,25.8278,VALID,339,VALID,0.466797,
2010-03-24, 00:20:04,VALID,1001.79,VALID,0,VALID,87.816,VALID,0,VALID,25.8064,VALID,353,VALID,0.720703,
2010-03-24, 00:21:04,VALID,1001.77,VALID,0,VALID,87.8084,VALID,0,VALID,25.8064,VALID,7,VALID,0.721875,
2010-03-24, 00:22:04,VALID,1001.78,VALID,0,VALID,87.7779,VALID,0,VALID,25.8064,VALID,355,VALID,0.348828,
2010-03-24, 00:23:04,VALID,1001.74,VALID,0,VALID,87.8542,VALID,0,VALID,25.8064,VALID,350,VALID,0.591797,
2010-03-24, 00:24:04,VALID,1001.71,VALID,0,VALID,87.9076,VALID,0,VALID,25.8064,VALID,349,VALID,0.462109,
2010-03-24, 00:25:04,VALID,1001.71,VALID,0,VALID,87.9228,VALID,0,VALID,25.7869,VALID,349,VALID,0.175781,
2010-03-24, 00:26:04,VALID,1001.71,VALID,0,VALID,87.9686,VALID,0,VALID,25.8064,VALID,349,VALID,0.388672,
2010-03-24, 00:27:04,VALID,1001.69,VALID,0,VALID,88.0144,VALID,0,VALID,25.7869,VALID,349,VALID,0.283203,
2010-03-24, 00:28:04,VALID,1001.66,VALID,0,VALID,88.0907,VALID,0,VALID,25.7674,VALID,349,VALID,0.39375,
2010-03-24, 00:29:04,VALID,1001.68,VALID,0,VALID,88.167,VALID,0,VALID,25.7285,VALID,349,VALID,0.295312,
2010-03-24, 00:30:04,VALID,1001.66,VALID,0,VALID,88.3119,VALID,0,VALID,25.7285,VALID,349,VALID,0.325,
2010-03-24, 00:31:04,VALID,1001.64,VALID,0,VALID,88.434,VALID,0,VALID,25.709,VALID,346,VALID,0.336328,
2010-03-24, 00:32:04,VALID,1001.63,VALID,0,VALID,88.5179,VALID,0,VALID,25.6895,VALID,346,VALID,0.678906,
2010-03-24, 00:33:04,VALID,1001.58,VALID,0,VALID,88.6018,VALID,0,VALID,25.67,VALID,337,VALID,0.398828,
2010-03-24, 00:34:04,VALID,1001.55,VALID,0,VALID,88.7468,VALID,0,VALID,25.67,VALID,340,VALID,0.507813,
2010-03-24, 00:35:04,VALID,1001.56,VALID,0,VALID,88.7468,VALID,0,VALID,25.6506,VALID,342,VALID,0.222266,
2010-03-24, 00:36:04,VALID,1001.55,VALID,0,VALID,88.8002,VALID,0,VALID,25.672,VALID,342,VALID,0.0484375,
2010-03-24, 00:37:04,VALID,1001.55,VALID,0,VALID,88.8917,VALID,0,VALID,25.6292,VALID,342,VALID,0,
2010-03-24, 00:38:04,VALID,1001.58,VALID,0,VALID,89.0214,VALID,0,VALID,25.6292,VALID,342,VALID,0.00898437,
2010-03-24, 00:39:04,VALID,1001.57,VALID,0,VALID,89.0901,VALID,0,VALID,25.633,VALID,342,VALID,0.160156,
2010-03-24, 00:40:04,VALID,1001.58,VALID,0,VALID,89.1358,VALID,0,VALID,25.6311,VALID,341,VALID,0.177344,
2010-03-24, 00:41:04,VALID,1001.58,VALID,0,VALID,89.0748,VALID,0,VALID,25.6097,VALID,341,VALID,0.332812,
2010-03-24, 00:42:04,VALID,1001.57,VALID,0,VALID,89.0061,VALID,0,VALID,25.6506,VALID,341,VALID,0.166016,
2010-03-24, 00:43:04,VALID,1001.55,VALID,0,VALID,88.9451,VALID,0,VALID,25.6506,VALID,341,VALID,0.466016,
2010-03-24, 00:44:04,VALID,1001.52,VALID,0,VALID,88.9375,VALID,0,VALID,25.6311,VALID,340,VALID,0.351172,
2010-03-24, 00:45:04,VALID,1001.52,VALID,0,VALID,88.9985,VALID,0,VALID,25.6097,VALID,342,VALID,0.558594,
2010-03-24, 00:46:04,VALID,1001.48,VALID,0,VALID,88.9146,VALID,0,VALID,25.6506,VALID,342,VALID,0.417969,
2010-03-24, 00:47:04,VALID,1001.47,VALID,0,VALID,88.8688,VALID,0,VALID,25.6116,VALID,342,VALID,0.375781,
2010-03-24, 00:48:04,VALID,1001.51,VALID,0,VALID,88.9909,VALID,0,VALID,25.5921,VALID,342,VALID,0,
2010-03-24, 00:49:04,VALID,1001.46,VALID,0,VALID,89.1664,VALID,0,VALID,25.5707,VALID,343,VALID,0.0390625,
2010-03-24, 00:50:04,VALID,1001.48,VALID,0,VALID,89.2198,VALID,0,VALID,25.5902,VALID,359,VALID,0.869922,
2010-03-24, 00:51:04,VALID,1001.46,VALID,0,VALID,89.0061,VALID,0,VALID,25.67,VALID,285,VALID,0.792188,
2010-03-24, 00:52:04,VALID,1001.46,VALID,0,VALID,88.7773,VALID,0,VALID,25.6876,VALID,2,VALID,0.191797,
2010-03-24, 00:53:04,VALID,1001.44,VALID,0,VALID,88.762,VALID,0,VALID,25.748,VALID,2,VALID,0,
2010-03-24, 00:54:04,VALID,1001.45,VALID,0,VALID,88.7468,VALID,0,VALID,25.746,VALID,2,VALID,0.332812,
2010-03-24, 00:55:04,VALID,1001.45,VALID,0,VALID,88.6247,VALID,0,VALID,25.7655,VALID,324,VALID,0.356641,
2010-03-24, 00:56:04,VALID,1001.43,VALID,0,VALID,88.6247,VALID,0,VALID,25.785,VALID,327,VALID,0.284766,
2010-03-24, 00:57:04,VALID,1001.44,VALID,0,VALID,88.5484,VALID,0,VALID,25.8239,VALID,342,VALID,0.164453,
2010-03-24, 00:58:04,VALID,1001.41,VALID,0,VALID,88.3424,VALID,0,VALID,25.8648,VALID,345,VALID,0.534766,
2010-03-24, 00:59:04,VALID,1001.43,VALID,0,VALID,88.2509,VALID,0,VALID,25.8648,VALID,345,VALID,0.000390625,
2010-03-24, 01:00:04,VALID,1001.42,VALID,0,VALID,88.3043,VALID,0,VALID,25.8843,VALID,270,VALID,0.107031,
2010-03-24, 01:01:04,VALID,1001.38,VALID,0,VALID,88.1365,VALID,0.100563,VALID,25.8823,VALID,315,VALID,0.120703,
2010-03-24, 01:02:04,VALID,1001.39,VALID,0,VALID,88.0068,VALID,0,VALID,25.9018,VALID,10,VALID,0.475391,
2010-03-24, 01:03:04,VALID,1001.39,VALID,0,VALID,88.0296,VALID,0,VALID,25.9232,VALID,9,VALID,0.165234,
2010-03-24, 01:04:04,VALID,1001.38,VALID,0,VALID,87.9,VALID,0,VALID,25.9232,VALID,4,VALID,0.0382813,
2010-03-24, 01:05:04,VALID,1001.38,VALID,0,VALID,87.816,VALID,0,VALID,25.9427,VALID,262,VALID,0.182812,
2010-03-24, 01:06:04,VALID,1001.36,VALID,0,VALID,87.7398,VALID,0,VALID,25.9213,VALID,290,VALID,0.433594,
2010-03-24, 01:07:04,VALID,1001.36,VALID,0,VALID,87.7092,VALID,0,VALID,25.9622,VALID,285,VALID,0.154687,
2010-03-24, 01:08:04,VALID,1001.37,VALID,0,VALID,87.8618,VALID,0,VALID,25.9817,VALID,285,VALID,0.152734,
2010-03-24, 01:09:04,VALID,1001.33,VALID,0,VALID,87.8542,VALID,0,VALID,25.9622,VALID,285,VALID,0.201172,
2010-03-24, 01:10:04,VALID,1001.36,VALID,0,VALID,87.7398,VALID,0,VALID,25.9213,VALID,285,VALID,0.520703,
2010-03-24, 01:11:04,VALID,1001.34,VALID,0,VALID,87.7398,VALID,0,VALID,25.9408,VALID,285,VALID,0.16875,
2010-03-24, 01:12:04,VALID,1001.34,VALID,0,VALID,87.7398,VALID,0,VALID,25.9622,VALID,285,VALID,0.0328125,
2010-03-24, 01:13:04,VALID,1001.31,VALID,0,VALID,87.8313,VALID,0,VALID,25.9427,VALID,285,VALID,0.130078,
2010-03-24, 01:14:04,VALID,1001.29,VALID,0,VALID,87.9152,VALID,0,VALID,25.9232,VALID,285,VALID,0,
2010-03-24, 01:15:04,VALID,1001.22,VALID,0,VALID,87.961,VALID,0,VALID,25.8629,VALID,285,VALID,0.00429688,
2010-03-24, 01:16:04,VALID,1001.19,VALID,0,VALID,88.1593,VALID,0,VALID,25.8648,VALID,285,VALID,0,
2010-03-24, 01:17:04,VALID,1001.18,VALID,0,VALID,88.2204,VALID,0,VALID,25.8453,VALID,285,VALID,0.217969,
2010-03-24, 01:18:04,VALID,1001.13,VALID,0,VALID,88.3195,VALID,0,VALID,25.785,VALID,285,VALID,0.260547,
2010-03-24, 01:19:04,VALID,1001.15,VALID,0,VALID,88.4721,VALID,0,VALID,25.746,VALID,285,VALID,0.0484375,
2010-03-24, 01:20:04,VALID,1001.13,VALID,0,VALID,88.6171,VALID,0,VALID,25.7071,VALID,285,VALID,0.0964844,
2010-03-24, 01:21:04,VALID,1001.14,VALID,0,VALID,88.7468,VALID,0,VALID,25.6681,VALID,285,VALID,0,
2010-03-24, 01:22:04,VALID,1001.12,VALID,0,VALID,88.9451,VALID,0,VALID,25.6681,VALID,285,VALID,0.0480469,
2010-03-24, 01:23:04,VALID,1001.1,VALID,0,VALID,89.0824,VALID,0,VALID,25.67,VALID,285,VALID,0.0328125,
2010-03-24, 01:24:04,VALID,1001.09,VALID,0,VALID,89.1053,VALID,0,VALID,25.6292,VALID,285,VALID,0.0269531,
2010-03-24, 01:25:04,VALID,1001.07,VALID,0,VALID,89.2808,VALID,0,VALID,25.6311,VALID,285,VALID,0.0125,
2010-03-24, 01:26:04,VALID,1001.06,VALID,0,VALID,89.3266,VALID,0,VALID,25.633,VALID,285,VALID,0.419922,
2010-03-24, 01:27:04,VALID,1001.04,VALID,0,VALID,89.3876,VALID,0,VALID,25.6097,VALID,285,VALID,0.132813,
2010-03-24, 01:28:04,VALID,1001.04,VALID,0,VALID,89.38,VALID,0,VALID,25.6116,VALID,284,VALID,0.127344,
2010-03-24, 01:29:04,VALID,1001.03,VALID,0,VALID,89.4715,VALID,0,VALID,25.6506,VALID,284,VALID,0.0945313,
2010-03-24, 01:30:04,VALID,1001.03,VALID,0,VALID,89.4257,VALID,0,VALID,25.6915,VALID,295,VALID,0.315625,
2010-03-24, 01:31:04,VALID,1000.98,VALID,0,VALID,89.3266,VALID,0,VALID,25.67,VALID,308,VALID,0.158984,
2010-03-24, 01:32:04,VALID,1001,VALID,0,VALID,89.1892,VALID,0,VALID,25.6895,VALID,319,VALID,0.602734,
2010-03-24, 01:33:04,VALID,1000.97,VALID,0,VALID,89.0519,VALID,0,VALID,25.6895,VALID,308,VALID,0.164063,
2010-03-24, 01:34:04,VALID,1000.99,VALID,0,VALID,89.0367,VALID,0,VALID,25.709,VALID,309,VALID,0.266406,
2010-03-24, 01:35:04,VALID,1000.97,VALID,0,VALID,88.8993,VALID,0,VALID,25.6895,VALID,312,VALID,0.351563,
2010-03-24, 01:36:04,VALID,1000.99,VALID,0,VALID,88.7925,VALID,0,VALID,25.6895,VALID,312,VALID,0,
2010-03-24, 01:37:04,VALID,1000.98,VALID,0,VALID,88.8536,VALID,0,VALID,25.67,VALID,312,VALID,0,
2010-03-24, 01:38:04,VALID,1001,VALID,0,VALID,88.9375,VALID,0,VALID,25.6506,VALID,312,VALID,0.264062,
2010-03-24, 01:39:04,VALID,1000.98,VALID,0,VALID,89.0214,VALID,0,VALID,25.6116,VALID,312,VALID,0.262109,
2010-03-24, 01:40:04,VALID,1001.03,VALID,0,VALID,89.2121,VALID,0,VALID,25.5727,VALID,312,VALID,0.167969,
2010-03-24, 01:41:04,VALID,1001.01,VALID,0,VALID,89.4563,VALID,0,VALID,25.5532,VALID,312,VALID,0.296094,
2010-03-24, 01:42:04,VALID,1001,VALID,0,VALID,89.5249,VALID,0,VALID,25.4928,VALID,312,VALID,0.308984,
2010-03-24, 01:43:04,VALID,1001,VALID,0,VALID,89.7919,VALID,0,VALID,25.4558,VALID,312,VALID,0.0886719,
2010-03-24, 01:44:04,VALID,1000.97,VALID,0,VALID,89.9979,VALID,0,VALID,25.4169,VALID,312,VALID,0,
2010-03-24, 01:45:04,VALID,1000.95,VALID,0,VALID,90.387,VALID,0,VALID,25.3974,VALID,312,VALID,0,
2010-03-24, 01:46:04,VALID,1000.93,VALID,0,VALID,90.6387,VALID,0,VALID,25.339,VALID,312,VALID,0,
2010-03-24, 01:47:04,VALID,1000.9,VALID,0,VALID,90.8142,VALID,0,VALID,25.2981,VALID,312,VALID,0.0046875,
2010-03-24, 01:48:04,VALID,1000.84,VALID,0,VALID,91.1499,VALID,0,VALID,25.2806,VALID,312,VALID,0.0882813,
2010-03-24, 01:49:04,VALID,1000.8,VALID,0,VALID,91.4932,VALID,0,VALID,25.3,VALID,312,VALID,0.315234,
2010-03-24, 01:50:04,VALID,1000.78,VALID,0,VALID,91.7831,VALID,0,VALID,25.2611,VALID,312,VALID,0.204297,
2010-03-24, 01:51:04,VALID,1000.75,VALID,0,VALID,91.9356,VALID,0,VALID,25.2416,VALID,312,VALID,0.192578,
2010-03-24, 01:52:04,VALID,1000.71,VALID,0,VALID,92.0882,VALID,0,VALID,25.2416,VALID,312,VALID,0.188281,
2010-03-24, 01:53:04,VALID,1000.69,VALID,0,VALID,92.1721,VALID,0,VALID,25.1813,VALID,312,VALID,0.136328,
2010-03-24, 01:54:04,VALID,1000.68,VALID,0,VALID,92.2103,VALID,0,VALID,25.1618,VALID,312,VALID,0,
2010-03-24, 01:55:04,VALID,1000.68,VALID,0,VALID,92.2789,VALID,0,VALID,25.1229,VALID,312,VALID,0,
2010-03-24, 01:56:04,VALID,1000.63,VALID,0,VALID,92.3247,VALID,0,VALID,25.0839,VALID,312,VALID,0,
2010-03-24, 01:57:04,VALID,1000.64,VALID,0,VALID,92.4239,VALID,0,VALID,25.0858,VALID,312,VALID,0.0675781,
2010-03-24, 01:58:04,VALID,1000.63,VALID,0,VALID,92.4925,VALID,0,VALID,25.0663,VALID,312,VALID,0.299609,
2010-03-24, 01:59:04,VALID,1000.64,VALID,0,VALID,92.5536,VALID,0,VALID,25.0274,VALID,312,VALID,0.361719,
2010-03-24, 02:00:04,VALID,1000.67,VALID,0,VALID,92.6528,VALID,0,VALID,24.9885,VALID,312,VALID,0.294922,
2010-03-24, 02:01:04,VALID,1000.66,VALID,0,VALID,92.7519,VALID,0,VALID,24.969,VALID,312,VALID,0.114844,
2010-03-24, 02:02:04,VALID,1000.68,VALID,0,VALID,92.9045,VALID,0,VALID,24.9495,VALID,313,VALID,0,
2010-03-24, 02:03:04,VALID,1000.69,VALID,0,VALID,92.9732,VALID,0,VALID,24.9106,VALID,313,VALID,0,
2010-03-24, 02:04:04,VALID,1000.7,VALID,0,VALID,93.0571,VALID,0,VALID,24.93,VALID,313,VALID,0,
2010-03-24, 02:05:04,VALID,1000.73,VALID,0,VALID,93.0952,VALID,0,VALID,24.8911,VALID,313,VALID,0,
2010-03-24, 02:06:04,VALID,1000.77,VALID,0,VALID,93.1334,VALID,0,VALID,24.8716,VALID,313,VALID,0,
2010-03-24, 02:07:04,VALID,1000.77,VALID,0,VALID,93.1486,VALID,0,VALID,24.8522,VALID,313,VALID,0,
2010-03-24, 02:08:04,VALID,1000.79,VALID,0,VALID,93.2097,VALID,0,VALID,24.8113,VALID,313,VALID,0,
2010-03-24, 02:09:04,VALID,1000.78,VALID,0,VALID,93.3775,VALID,0,VALID,24.8113,VALID,313,VALID,0,
2010-03-24, 02:10:04,VALID,1000.82,VALID,0,VALID,93.4996,VALID,0,VALID,24.8327,VALID,313,VALID,0,
2010-03-24, 02:11:04,VALID,1000.77,VALID,0,VALID,93.5758,VALID,0,VALID,24.8327,VALID,313,VALID,0,
2010-03-24, 02:12:04,VALID,1000.78,VALID,0,VALID,93.6903,VALID,0,VALID,24.8327,VALID,313,VALID,0.335547,
2010-03-24, 02:13:04,VALID,1000.79,VALID,0,VALID,93.7971,VALID,0,VALID,24.8113,VALID,313,VALID,0.298828,
2010-03-24, 02:14:04,VALID,1000.82,VALID,0,VALID,93.8123,VALID,0,VALID,24.8132,VALID,313,VALID,0.0992187,
2010-03-24, 02:15:04,VALID,1000.84,VALID,0,VALID,93.8734,VALID,0,VALID,24.7724,VALID,313,VALID,0,
2010-03-24, 02:16:04,VALID,1000.88,VALID,0,VALID,93.8963,VALID,0,VALID,24.7937,VALID,313,VALID,0.0792969,
2010-03-24, 02:17:04,VALID,1000.89,VALID,0,VALID,93.9268,VALID,0,VALID,24.7937,VALID,313,VALID,0.111719,
2010-03-24, 02:18:04,VALID,1000.93,VALID,0,VALID,93.9649,VALID,0,VALID,24.7548,VALID,313,VALID,0.277344,
2010-03-24, 02:19:04,VALID,1000.94,VALID,0,VALID,94.0031,VALID,0,VALID,24.7335,VALID,313,VALID,0,
2010-03-24, 02:20:04,VALID,1000.95,VALID,0,VALID,94.0641,VALID,0,VALID,24.714,VALID,313,VALID,0,
2010-03-24, 02:21:04,VALID,1000.94,VALID,0,VALID,94.0946,VALID,0,VALID,24.7353,VALID,313,VALID,0,
2010-03-24, 02:22:04,VALID,1000.97,VALID,0,VALID,94.1862,VALID,0,VALID,24.7353,VALID,313,VALID,0,
2010-03-24, 02:23:04,VALID,1000.94,VALID,0,VALID,94.2624,VALID,0,VALID,24.7335,VALID,313,VALID,0.233594,
2010-03-24, 02:24:04,VALID,1000.94,VALID,0,VALID,94.3006,VALID,0,VALID,24.7743,VALID,312,VALID,0.121094,
2010-03-24, 02:25:04,VALID,1000.93,VALID,0,VALID,94.3158,VALID,0,VALID,24.7937,VALID,312,VALID,0,
2010-03-24, 02:26:04,VALID,1000.91,VALID,0,VALID,94.3311,VALID,0,VALID,24.8132,VALID,312,VALID,0.0398437,
2010-03-24, 02:27:04,VALID,1000.92,VALID,0,VALID,94.3235,VALID,0,VALID,24.8346,VALID,312,VALID,0.355859,
2010-03-24, 02:28:04,VALID,1000.89,VALID,0,VALID,94.3235,VALID,0,VALID,24.8327,VALID,312,VALID,0,
2010-03-24, 02:29:04,VALID,1000.91,VALID,0,VALID,94.2167,VALID,0,VALID,24.8327,VALID,312,VALID,0.242969,
2010-03-24, 02:30:04,VALID,1000.94,VALID,0,VALID,94.0794,VALID,0,VALID,24.7937,VALID,312,VALID,0,
2010-03-24, 02:31:04,VALID,1000.95,VALID,0,VALID,94.0031,VALID,0,VALID,24.7724,VALID,312,VALID,0.199219,
2010-03-24, 02:32:04,VALID,1000.97,VALID,0,VALID,93.9268,VALID,0,VALID,24.7956,VALID,312,VALID,0.201953,
2010-03-24, 02:33:04,VALID,1000.98,VALID,0,VALID,93.9268,VALID,0,VALID,24.7937,VALID,312,VALID,0.161328,
2010-03-24, 02:34:04,VALID,1001,VALID,0,VALID,93.9268,VALID,0,VALID,24.7548,VALID,312,VALID,0.296484,
2010-03-24, 02:35:04,VALID,1001.05,VALID,0,VALID,93.942,VALID,0,VALID,24.7353,VALID,312,VALID,0,
2010-03-24, 02:36:04,VALID,1001.01,VALID,0,VALID,93.9497,VALID,0,VALID,24.7159,VALID,312,VALID,0,
2010-03-24, 02:37:04,VALID,1001.02,VALID,0,VALID,93.9878,VALID,0,VALID,24.6945,VALID,312,VALID,0,
2010-03-24, 02:38:04,VALID,1001.02,VALID,0,VALID,94.0183,VALID,0,VALID,24.675,VALID,312,VALID,0.222266,
2010-03-24, 02:39:04,VALID,1000.99,VALID,0,VALID,94.1022,VALID,0,VALID,24.6556,VALID,312,VALID,0.198047,
2010-03-24, 02:40:04,VALID,1000.97,VALID,0,VALID,94.1251,VALID,0,VALID,24.6769,VALID,312,VALID,0.364844,
2010-03-24, 02:41:04,VALID,1000.97,VALID,0,VALID,94.1633,VALID,0,VALID,24.6769,VALID,312,VALID,0.136328,
2010-03-24, 02:42:04,VALID,1000.98,VALID,0,VALID,94.2396,VALID,0,VALID,24.6166,VALID,312,VALID,0.378906,
2010-03-24, 02:43:04,VALID,1000.95,VALID,0,VALID,94.2853,VALID,0,VALID,24.638,VALID,312,VALID,0.158984,
2010-03-24, 02:44:04,VALID,1000.98,VALID,0,VALID,94.354,VALID,0,VALID,24.6166,VALID,312,VALID,0.00117188,
2010-03-24, 02:45:04,VALID,1000.96,VALID,0,VALID,94.4227,VALID,0,VALID,24.638,VALID,312,VALID,0,
2010-03-24, 02:46:04,VALID,1000.98,VALID,0,VALID,94.4761,VALID,0,VALID,24.638,VALID,312,VALID,0,
2010-03-24, 02:47:04,VALID,1000.98,VALID,0,VALID,94.4761,VALID,0,VALID,24.638,VALID,312,VALID,0,
2010-03-24, 02:48:04,VALID,1000.96,VALID,0,VALID,94.5142,VALID,0,VALID,24.6574,VALID,312,VALID,0,
2010-03-24, 02:49:04,VALID,1000.96,VALID,0,VALID,94.5295,VALID,0,VALID,24.6361,VALID,312,VALID,0,
2010-03-24, 02:50:04,VALID,1000.98,VALID,0,VALID,94.6057,VALID,0,VALID,24.6556,VALID,312,VALID,0.0277344,
2010-03-24, 02:51:04,VALID,1001,VALID,0,VALID,94.6897,VALID,0,VALID,24.6964,VALID,312,VALID,0,
2010-03-24, 02:52:04,VALID,1001.03,VALID,0,VALID,94.7049,VALID,0,VALID,24.6769,VALID,312,VALID,0.352734,
2010-03-24, 02:53:04,VALID,1001.05,VALID,0,VALID,94.7202,VALID,0,VALID,24.6574,VALID,312,VALID,0.455859,
2010-03-24, 02:54:04,VALID,1001.02,VALID,0,VALID,94.6897,VALID,0,VALID,24.5972,VALID,312,VALID,0.323438,
2010-03-24, 02:55:04,VALID,1001.07,VALID,0,VALID,94.6897,VALID,0.100563,VALID,24.5972,VALID,312,VALID,0.2,
2010-03-24, 02:56:04,VALID,1001.11,VALID,0,VALID,94.7049,VALID,0,VALID,24.599,VALID,312,VALID,0.120312,
2010-03-24, 02:57:04,VALID,1001.1,VALID,0,VALID,94.7125,VALID,0,VALID,24.5388,VALID,312,VALID,0.217187,
2010-03-24, 02:58:04,VALID,1001.13,VALID,0,VALID,94.7354,VALID,0,VALID,24.5406,VALID,312,VALID,0.283203,
2010-03-24, 02:59:04,VALID,1001.14,VALID,0,VALID,94.7354,VALID,0,VALID,24.562,VALID,312,VALID,0.365625,
2010-03-24, 03:00:04,VALID,1001.17,VALID,0,VALID,94.7507,VALID,0,VALID,24.5193,VALID,312,VALID,0.210156,
2010-03-24, 03:01:04,VALID,1001.15,VALID,0,VALID,94.7812,VALID,0.100563,VALID,24.4998,VALID,312,VALID,0.226953,
2010-03-24, 03:02:04,VALID,1001.2,VALID,0,VALID,94.7965,VALID,0,VALID,24.5212,VALID,31,VALID,0.352734,
2010-03-24, 03:03:04,VALID,1001.17,VALID,0,VALID,94.7965,VALID,0,VALID,24.5212,VALID,32,VALID,0.445703,
2010-03-24, 03:04:04,VALID,1001.18,VALID,0,VALID,94.8575,VALID,0,VALID,24.5193,VALID,57,VALID,0.475391,
2010-03-24, 03:05:04,VALID,1001.16,VALID,0,VALID,94.8728,VALID,0,VALID,24.5406,VALID,57,VALID,0.438281,
2010-03-24, 03:06:04,VALID,1001.14,VALID,0,VALID,94.9262,VALID,0,VALID,24.5601,VALID,57,VALID,0.298438,
2010-03-24, 03:07:04,VALID,1001.11,VALID,0,VALID,94.9643,VALID,0,VALID,24.5369,VALID,57,VALID,0.391016,
2010-03-24, 03:08:04,VALID,1001.09,VALID,0,VALID,94.9948,VALID,0.100563,VALID,24.5796,VALID,57,VALID,0.275391,
2010-03-24, 03:09:04,VALID,1001.06,VALID,0,VALID,94.9948,VALID,0,VALID,24.5796,VALID,57,VALID,0.207031,
2010-03-24, 03:10:04,VALID,1001.04,VALID,0,VALID,95.0177,VALID,0,VALID,24.5582,VALID,57,VALID,0.25,
2010-03-24, 03:11:04,VALID,1001.06,VALID,0,VALID,94.9872,VALID,0,VALID,24.5796,VALID,57,VALID,0.501953,
2010-03-24, 03:12:04,VALID,1001.04,VALID,0,VALID,94.9872,VALID,0,VALID,24.5796,VALID,57,VALID,0.312891,
2010-03-24, 03:13:04,VALID,1001.01,VALID,0,VALID,94.9872,VALID,0,VALID,24.5796,VALID,57,VALID,0.0359375,
2010-03-24, 03:14:04,VALID,1001.03,VALID,0,VALID,94.9872,VALID,0,VALID,24.5601,VALID,57,VALID,0,
2010-03-24, 03:15:04,VALID,1001.02,VALID,0,VALID,95.0024,VALID,0,VALID,24.5582,VALID,57,VALID,0,
2010-03-24, 03:16:04,VALID,1000.98,VALID,0,VALID,94.9948,VALID,0,VALID,24.5582,VALID,57,VALID,0,
2010-03-24, 03:17:04,VALID,1000.97,VALID,0,VALID,95.0024,VALID,0,VALID,24.5777,VALID,56,VALID,0,
2010-03-24, 03:18:04,VALID,1000.94,VALID,0,VALID,95.0024,VALID,0,VALID,24.5777,VALID,56,VALID,0,
2010-03-24, 03:19:04,VALID,1000.97,VALID,0,VALID,95.0101,VALID,0.100563,VALID,24.599,VALID,56,VALID,0,
2010-03-24, 03:20:04,VALID,1000.91,VALID,0,VALID,95.033,VALID,0,VALID,24.5796,VALID,56,VALID,0,
2010-03-24, 03:21:04,VALID,1000.9,VALID,0,VALID,95.0253,VALID,0,VALID,24.5582,VALID,56,VALID,0,
2010-03-24, 03:22:04,VALID,1000.89,VALID,0,VALID,95.0024,VALID,0,VALID,24.5777,VALID,57,VALID,0,
2010-03-24, 03:23:04,VALID,1000.87,VALID,0,VALID,95.0177,VALID,0,VALID,24.5582,VALID,56,VALID,0,
2010-03-24, 03:24:04,VALID,1000.9,VALID,0,VALID,95.0253,VALID,0,VALID,24.5777,VALID,56,VALID,0,
2010-03-24, 03:25:04,VALID,1000.89,VALID,0,VALID,95.0253,VALID,0,VALID,24.5582,VALID,56,VALID,0,
2010-03-24, 03:26:04,VALID,1000.9,VALID,0,VALID,95.033,VALID,0,VALID,24.5388,VALID,56,VALID,0,
2010-03-24, 03:27:04,VALID,1000.9,VALID,0,VALID,95.033,VALID,0,VALID,24.5582,VALID,56,VALID,0,
2010-03-24, 03:28:04,VALID,1000.93,VALID,0,VALID,95.0406,VALID,0,VALID,24.6185,VALID,56,VALID,0,
2010-03-24, 03:29:04,VALID,1000.95,VALID,0,VALID,95.0482,VALID,0,VALID,24.5972,VALID,56,VALID,0,
2010-03-24, 03:30:04,VALID,1000.92,VALID,0,VALID,95.0406,VALID,0,VALID,24.6185,VALID,56,VALID,0,
2010-03-24, 03:31:04,VALID,1000.97,VALID,0,VALID,95.0406,VALID,0.100563,VALID,24.5972,VALID,56,VALID,0,
2010-03-24, 03:32:04,VALID,1001.01,VALID,0,VALID,95.0024,VALID,0,VALID,24.5972,VALID,56,VALID,0,
2010-03-24, 03:33:04,VALID,1001.02,VALID,0,VALID,95.0024,VALID,0,VALID,24.6361,VALID,56,VALID,0,
2010-03-24, 03:34:04,VALID,1001.07,VALID,0,VALID,95.0177,VALID,0,VALID,24.6166,VALID,39,VALID,0.0835937,
2010-03-24, 03:35:04,VALID,1001.11,VALID,0,VALID,95.0024,VALID,0,VALID,24.7159,VALID,354,VALID,0.360938,
2010-03-24, 03:36:04,VALID,1001.13,VALID,0,VALID,95.0253,VALID,0,VALID,24.7529,VALID,335,VALID,0.389453,
2010-03-24, 03:37:04,VALID,1001.14,VALID,0,VALID,94.9948,VALID,0,VALID,24.7724,VALID,307,VALID,0.255078,
2010-03-24, 03:38:04,VALID,1001.18,VALID,0,VALID,94.9414,VALID,0,VALID,24.8113,VALID,307,VALID,0.11875,
2010-03-24, 03:39:04,VALID,1001.18,VALID,0,VALID,94.8651,VALID,0,VALID,24.8503,VALID,316,VALID,0.124609,
2010-03-24, 03:40:04,VALID,1001.23,VALID,0,VALID,94.7812,VALID,0,VALID,24.8892,VALID,360,VALID,0.216406,
2010-03-24, 03:41:04,VALID,1001.19,VALID,0,VALID,94.6668,VALID,0,VALID,24.9495,VALID,360,VALID,0.186719,
2010-03-24, 03:42:04,VALID,1001.19,VALID,0,VALID,94.5142,VALID,0,VALID,24.9885,VALID,360,VALID,0.221484,
2010-03-24, 03:43:04,VALID,1001.18,VALID,0,VALID,94.293,VALID,0.100563,VALID,24.9866,VALID,360,VALID,0.494531,
2010-03-24, 03:44:04,VALID,1001.15,VALID,0,VALID,94.0794,VALID,0,VALID,25.006,VALID,360,VALID,0.441797,
2010-03-24, 03:45:04,VALID,1001.12,VALID,0,VALID,93.7971,VALID,0,VALID,24.9671,VALID,18,VALID,0.308984,
2010-03-24, 03:46:04,VALID,1001.1,VALID,0,VALID,93.6216,VALID,0,VALID,24.9282,VALID,18,VALID,0.134766,
2010-03-24, 03:47:04,VALID,1001.08,VALID,0,VALID,93.5453,VALID,0.100563,VALID,24.9476,VALID,18,VALID,0.0046875,
2010-03-24, 03:48:04,VALID,1001.08,VALID,0,VALID,93.4843,VALID,0,VALID,24.9495,VALID,18,VALID,0.153906,